Regional Weather Roundup
Issued by NWS

Home | Current Version | Previous Version | Graphics & Text | Print | Product List | Glossary On
Versions: 1 2 3 4 5 6 7 8 9 10 11 12 13 14 15 16 17 18 19 20 21 22 23 24 25 26 27 28 29 30 31 32 33 34 35 36 37 38 39 40 41 42 43 44 45 46 47 48 49 50
000
ASUS45 KTFX 292204
RWRMT
MONTANA HOURLY WEATHER ROUNDUP
NATIONAL WEATHER SERVICE GREAT FALLS MT
404 PM MDT FRI AUG 29 2014

NOTE: "FAIR" INDICATES FEW OR NO CLOUDS BELOW 12000 FEET WITH NO
SIGNIFICANT WEATHER AND/OR OBSTRUCTIONS TO VISIBILITY.

* THESE STATIONS ARE NOT UNDER NWS QUALITY CONTROL. THEY DO NOT
   REPORT WEATHER SUCH AS PRECIPITATION OR FOG.

MTZ001>007-043-292300-
WEST OF THE DIVIDE
CITY           SKY/WX    TMP DP  RH WIND       PRES   REMARKS
KALISPELL      SUNNY     79  45  30 S12G18    29.83F
MISSOULA       SUNNY     84  36  18 VRB5      29.86F
BUTTE          SUNNY     79  32  18 VRB7      30.00F
MULLAN PASS    SUNNY     66  36  33 SW8       30.03F
* LINCOLN      N/A       79  36  21 SW4G12     N/A
* LOOKOUT PASS N/A       72  36  27 SE8G16     N/A
* POLSON       N/A       84  42  23 S3G11      N/A
* RONAN APT    SUNNY     82  43  25 S9         N/A
* SEELEY LAKE  N/A       80  38  22 NE4G13     N/A
* THOMP F APT  SUNNY     75  43  32 S9G16      N/A
$$

MTZ008-052>055-292300-
SOUTHWEST MONTANA
CITY           SKY/WX    TMP DP  RH WIND       PRES   REMARKS
BOZEMAN        SUNNY     81  46  29 N8        29.94F
DILLON         PTCLDY    82  39  22 W8        29.96F
W YELLOWSTONE  PTCLDY    73  37  27 SW15G23   30.12F
* THREE FORKS  SUNNY     81  66  60 N/A        N/A   HI  83
* BOULDER HILL N/A       76  33  21 SW7G15     N/A
* MONIDA PASS  N/A       71  41  34 S18G24     N/A
* RAYNOLDS PAS N/A       70  54  57 S12G17     N/A
* WHITEHALL    N/A       82  51  34 E5         N/A
* WISE RIVER   N/A       78  31  18 W11G23     N/A
$$

MTZ009>010-012-014-046-048-049-054-292300-
EAST SLOPES AND CENTRAL MONTANA
CITY           SKY/WX    TMP DP  RH WIND       PRES   REMARKS
CUT BANK       PTCLDY    77  46  33 S12       29.87F
GREAT FALLS    PTSUNNY   79  39  24 CALM      29.88F
HELENA         PTCLDY    81  45  28 SE8       29.90F
MALMSTROM AFB  PTSUNNY   79  39  24 W7G16     29.90F
* CONRAD       PTCLDY    81  43  26 N/A        N/A
* EAST GLACIER N/A       71  39  31 W16G25     N/A
* MONARCH      N/A       71  24  17 SW14G23    N/A
* PENDROY      N/A       77  39  26 SE10G16    N/A
* ROGERS PASS  N/A       73  32  22 E10G19     N/A
* SAINT MARY   N/A       72  44  37 SW8G15     N/A
* SWEET GRASS  N/A       74  48  40 S13G22     N/A
$$

MTZ011-013-016-021-035-040-045-047-050-051-292300-
NORTH CENTRAL MONTANA
CITY           SKY/WX    TMP DP  RH WIND       PRES   REMARKS
HAVRE          SUNNY     79  50  36 E7        29.88F
LEWISTOWN      PTCLDY    75  48  39 E10       29.95F
* CHESTER      N/A       76  46  35 S3G10      N/A
* DENTON       N/A       80  43  27 N4G19      N/A
* GEYSER       N/A       79  40  25 S4         N/A
* JUDITH GAP   N/A       73  44  35 SE16       N/A
* LOMA         N/A       78  47  34 SE6G12     N/A
$$

MTZ017>020-022>027-061-062-292300-
NORTHEAST MONTANA
CITY           SKY/WX    TMP DP  RH WIND       PRES   REMARKS
GLASGOW        SUNNY     72  50  46 SW8       29.96F
GLENDIVE       PTSUNNY   70  52  53 NE8       29.99F
JORDAN         SUNNY     72  52  49 E7        29.97F
SIDNEY         PTSUNNY   72  54  53 CALM      29.98F
WOLF POINT     SUNNY     73  48  41 VRB3      29.97F
* BEAVER HILL  N/A       69  51  53 N12        N/A
* CIRCLE       N/A       71  54  55 E7         N/A
* LINDSAY DVD  N/A       70  52  53 NW4G10     N/A
* NAVAJO       N/A       67  47  49 NE1        N/A
$$

MTZ028>042-056>058-292300-
SOUTHCENTRAL AND SOUTHEAST MONTANA
CITY           SKY/WX    TMP DP  RH WIND       PRES   REMARKS
BAKER          SUNNY     72  52  49 NW9       30.01F
BILLINGS       SUNNY     75  54  48 E7        29.97F
LIVINGSTON     SUNNY     84  43  24 N7        29.95F
MILES CITY     SUNNY     72  50  46 VRB3      29.98F
* LAUREL APT   SUNNY     77  54  45 NE7        N/A
* ROUNDUP APT  SUNNY     75  48  39 N/A        N/A
* ALZADA       N/A       71  55  57 W7         N/A
* HYSHAM       N/A       72  46  40 E9         N/A
* LAME DEER    N/A       67  51  57 NE6        N/A
* REED POINT   N/A       78  53  42 E9G16      N/A
* ROSCOE HILL  N/A       74  41  31 NE9        N/A
$$

REGIONAL REPORTS...DAKOTAS
CITY           SKY/WX    TMP DP  RH WIND       PRES   REMARKS
WILLISTON      CLOUDY    72  46  40 NE8       29.97S
DICKINSON      CLOUDY    68  55  63 N10       29.97S
BEACH          N/A       68  54  61 N14G22    29.99F
CROSBY         SUNNY     72  45  38 N8        29.97F
TIOGA          PTCLDY    66  46  49 N7        30.00S
WATFORD CITY   CLOUDY    68  50  53 N8        29.95F
BISMARCK       CLOUDY    72  57  59 N10       29.92R
GRAND FORKS    CLOUDY    68  63  84 N22G29    29.78R
FARGO          CLOUDY    75  64  69 SW3       29.75S
BUFFALO SD     SUNNY     73  52  48 NW16G24   29.94R
RAPID CITY     PTCLDY    79  54  42 NW13G22   29.98F
$$

REGIONAL REPORTS...WYOMING/IDAHO/WASHINGTON
CITY           SKY/WX    TMP DP  RH WIND       PRES   REMARKS
GILLETTE       SUNNY     75  48  39 N9        30.03F
SHERIDAN       PTCLDY    75  50  42 VRB3      30.02F
CODY           PTCLDY    79  46  31 E7        30.01S
YELLOWSTONE LA PTCLDY    68  36  31 VRB5      30.23F
SALMON         PTCLDY    79  46  31 CALM      29.88F
MULLAN PASS    SUNNY     66  36  33 SW8       30.03S
SAND POINT     PTCLDY    81  46  29 SW6       29.82F
SPOKANE        PTSUNNY   81  41  24 SW17G23   29.84F

$$




USA.gov is the U.S. government's official web portal to all federal, state and local government web resources and services.